Location: Six Mile Lake
(44.9000°N, 79.7170°W)
Time: 03:47:36
(UTC-04:00)

AO-92 - Pass Details

Date: 04 July 2022
Orbit: 469 x 481 km, 97.4° (Epoch: 09 August)

Event Time Altitude Azimuth Distance (km) Brightness Sun altitude
Exits shadow 00:13:23 18° 245° (WSW) 1,244 ? -20.4°
Maximum altitude 00:14:18 20° 266° (W) 1,179 ? -20.4°
Drops below altitude 10° 00:16:58 10° 315° (NW) 1,667 ? -20.6°
Sets 00:19:29 0° 333° (NNW) 2,556 ? -20.7°
